GW3872 Weather Reports


time (UTC)temp
C
wind
direction
speed
KPH
gust
KPH
rain 1hr
cm
rain 24hr
cm
rain mn
cm
humidity
%
barometer
mb
20260507223830 16 23 6.4 11.3 0.00 0.00 0.00 41 1012.7
20260507214822 16 37 8.0 12.9 0.00 0.00 0.00 39 1012.7
20260507214314 16 30 8.0 12.9 0.00 0.00 0.00 40 1012.7
20260507213826 16 39 6.4 20.9 0.00 0.00 0.00 39 1012.8
20260507213319 16 348 9.7 20.9 0.00 0.00 0.00 37 1012.8
20260507212831 16 316 8.0 20.9 0.00 0.00 0.00 40 1012.8
20260507212327 16 293 11.3 20.9 0.00 0.00 0.00 40 1012.8
20260507211820 16 321 11.3 19.3 0.00 0.00 0.00 39 1012.8
20260507211331 16 294 4.8 22.5 0.00 0.00 0.00 41 1012.8
20260507210823 16 1 12.9 22.5 0.00 0.00 0.00 38 1012.8
20260507210314 16 19 8.0 17.7 0.00 0.00 0.00 41 1012.7
20260507205824 16 53 4.8 17.7 0.00 0.00 0.00 39 1012.7
20260507205317 16 8 11.3 22.5 0.00 0.00 0.00 41 1012.7
20260507204850 16 40 9.7 20.9 0.00 0.00 0.00 39 1012.7
20260507204320 16 46 11.3 17.7 0.00 0.00 0.00 39 1012.7
20260507203836 16 237 1.6 14.5 0.00 0.00 0.00 40 1012.6
20260507203327 16 30 11.3 19.3 0.00 0.00 0.00 39 1012.8
20260507202820 16 315 8.0 24.1 0.00 0.00 0.00 43 1012.8
20260507202312 15 33 11.3 24.1 0.00 0.00 0.00 39 1012.7
20260507201825 16 13 14.5 20.9 0.00 0.00 0.00 39 1012.7
20260507201317 16 288 9.7 17.7 0.00 0.00 0.00 37 1012.6
20260507200829 16 333 4.8 14.5 0.00 0.00 0.00 43 1012.7
20260507200322 16 347 6.4 17.7 0.00 0.00 0.00 41 1012.9
20260507195813 16 314 9.7 17.7 0.00 0.00 0.00 41 1012.8
20260507195324 16 4 6.4 19.3 0.00 0.00 0.00 39 1012.8
20260507194817 15 23 6.4 22.5 0.00 0.00 0.00 40 1012.8
20260507194329 16 285 9.7 19.3 0.00 0.00 0.00 38 1012.8
20260507193822 16 278 9.7 16.1 0.00 0.00 0.00 38 1013.0
20260507192813 15 309 12.9 27.4 0.00 0.00 0.00 37 1013.1
20260507192325 15 360 11.3 24.1 0.00 0.00 0.00 38 1013.2
20260507191818 15 345 14.5 24.1 0.00 0.00 0.00 36 1013.1
20260507191311 16 253 6.4 14.5 0.00 0.00 0.00 38 1013.1
20260507190829 15 352 4.8 14.5 0.00 0.00 0.00 40 1013.1
20260507190321 15 38 6.4 16.1 0.00 0.00 0.00 41 1013.2
20260507185829 15 4 11.3 17.7 0.00 0.00 0.00 40 1013.2
20260507185321 15 29 11.3 17.7 0.00 0.00 0.00 39 1013.1
20260507184813 15 66 8.0 25.7 0.00 0.00 0.00 41 1013.2
20260507184324 15 40 9.7 25.7 0.00 0.00 0.00 39 1013.3
20260507183817 15 43 14.5 20.9 0.00 0.00 0.00 41 1013.2
20260507183328 15 41 9.7 24.1 0.00 0.00 0.00 41 1013.1
20260507182820 15 319 9.7 24.1 0.00 0.00 0.00 38 1013.1
20260507182336 15 332 12.9 19.3 0.00 0.00 0.00 39 1013.2
20260507181828 15 8 11.3 22.5 0.00 0.00 0.00 38 1013.3
20260507181320 15 345 11.3 22.5 0.00 0.00 0.00 42 1013.3
20260507180314 15 110 8.0 20.9 0.00 0.00 0.00 43 1013.4
20260507175844 15 321 8.0 20.9 0.00 0.00 0.00 43 1013.5
20260507175315 15 46 6.4 17.7 0.00 0.00 0.00 42 1013.5
20260507174828 14 328 9.7 19.3 0.00 0.00 0.00 41 1013.5
20260507174322 14 348 8.0 19.3 0.00 0.00 0.00 44 1013.7
20260507173817 14 26 8.0 22.5 0.00 0.00 0.00 41 1013.8
20260507173350 14 41 14.5 22.5 0.00 0.00 0.00 39 1013.8
20260507172825 14 232 6.4 20.9 0.00 0.00 0.00 45 1013.8
20260507172317 14 305 9.7 25.7 0.00 0.00 0.00 42 1014.0
20260507171829 14 61 11.3 27.4 0.00 0.00 0.00 42 1014.1
20260507171321 14 31 9.7 19.3 0.00 0.00 0.00 41 1014.2
20260507170813 14 294 9.7 25.7 0.00 0.00 0.00 42 1014.2
20260507170325 13 274 11.3 25.7 0.00 0.00 0.00 42 1014.2
20260507165815 13 14 9.7 20.9 0.00 0.00 0.00 42 1014.3
20260507165347 13 281 9.7 20.9 0.00 0.00 0.00 42 1014.4
20260507164819 13 347 11.3 20.9 0.00 0.00 0.00 42 1014.4
20260507164315 13 40 11.3 22.5 0.00 0.00 0.00 41 1014.4
20260507163828 13 288 16.1 22.5 0.00 0.00 0.00 39 1014.4
20260507163401 13 44 9.7 24.1 0.00 0.00 0.00 42 1014.7
20260507162829 13 302 9.7 24.1 0.00 0.00 0.00 41 1014.5
20260507162323 13 299 12.9 24.1 0.00 0.00 0.00 39 1014.4
20260507161816 13 39 6.4 19.3 0.00 0.00 0.00 42 1014.5
20260507161329 13 15 8.0 17.7 0.00 0.00 0.00 41 1014.5
20260507160841 13 349 6.4 20.9 0.00 0.00 0.00 42 1014.5
20260507160334 13 297 8.0 29.0 0.00 0.00 0.00 42 1014.5
20260507155843 13 294 11.3 29.0 0.00 0.00 0.00 40 1014.5
20260507155316 13 348 9.7 14.5 0.00 0.00 0.00 44 1014.5
20260507154814 13 357 6.4 19.3 0.00 0.00 0.00 41 1014.5
20260507154328 13 335 8.0 19.3 0.00 0.00 0.00 42 1014.5
20260507153822 13 297 4.8 16.1 0.00 0.00 0.00 45 1014.4
20260507153316 13 347 8.0 14.5 0.00 0.00 0.00 47 1014.4
20260507152830 12 348 8.0 14.5 0.00 0.00 0.00 48 1014.4
20260507151824 12 26 8.0 16.1 0.00 0.00 0.00 49 1014.4
20260507151321 12 283 4.8 16.1 0.00 0.00 0.00 46 1014.3
20260507150815 12 324 6.4 16.1 0.00 0.00 0.00 45 1014.4
20260507150328 12 309 6.4 14.5 0.00 0.00 0.00 48 1014.4
20260507145817 12 281 9.7 14.5 0.00 0.00 0.00 47 1014.5
20260507145328 12 321 4.8 20.9 0.00 0.00 0.00 49 1014.5
20260507144821 12 8 6.4 20.9 0.00 0.00 0.00 47 1014.5
20260507144313 12 360 6.4 11.3 0.00 0.00 0.00 52 1014.5
20260507143827 12 351 6.4 16.1 0.00 0.00 0.00 49 1014.5
20260507143324 12 4 6.4 17.7 0.00 0.00 0.00 52 1014.4
20260507142317 11 42 8.0 14.5 0.00 0.00 0.00 52 1014.5
20260507141831 11 32 11.3 19.3 0.00 0.00 0.00 51 1014.6
20260507141324 11 41 9.7 16.1 0.00 0.00 0.00 50 1014.6
20260507140818 11 5 4.8 17.7 0.00 0.00 0.00 53 1014.6
20260507140333 11 315 6.4 17.7 0.00 0.00 0.00 51 1014.5
20260507135843 11 39 11.3 14.5 0.00 0.00 0.00 53 1014.6
20260507135316 11 243 4.8 16.1 0.00 0.00 0.00 54 1014.5
20260507134828 11 47 11.3 16.1 0.00 0.00 0.00 55 1014.5
20260507133840 11 360 6.4 12.9 0.00 0.00 0.00 54 1014.5
20260507133332 11 39 4.8 9.7 0.00 0.00 0.00 59 1014.4
20260507132825 11 27 3.2 6.4 0.00 0.00 0.00 63 1014.5
20260507132318 10 36 3.2 8.0 0.00 0.00 0.00 63 1014.5
20260507131832 10 37 3.2 8.0 0.00 0.00 0.00 62 1014.5
20260507131327 10 54 3.2 4.8 0.00 0.00 0.00 67 1014.5
20260507130821 10 13 1.6 6.4 0.00 0.00 0.00 71 1014.6
20260507130353 10 296 3.2 6.4 0.00 0.00 0.00 70 1014.5
20260507125822 10 79 3.2 6.4 0.00 0.00 0.00 70 1014.5
20260507125320 10 40 0.0 4.8 0.00 0.00 0.00 70 1014.5
20260507124853 10 40 1.6 4.8 0.00 0.00 0.00 69 1014.5
20260507124324 9 56 0.0 3.2 0.00 0.00 0.00 71 1014.4
20260507123817 9 57 1.6 4.8 0.00 0.00 0.00 71 1014.5
20260507123329 9 51 3.2 4.8 0.00 0.00 0.00 71 1014.5
20260507122823 9 76 1.6 3.2 0.00 0.00 0.00 71 1014.6
20260507122336 9 70 3.2 3.2 0.00 0.00 0.00 72 1014.7
20260507121828 9 32 1.6 3.2 0.00 0.00 0.00 77 1014.7
20260507121321 8 32 0.0 0.0 0.00 0.00 0.00 81 1014.7
20260507120818 7 31 0.0 1.6 0.00 0.00 0.00 81 1014.7
20260507120351 7 31 0.0 1.6 0.00 0.00 0.00 82 1014.7
20260507115817 7 32 0.0 1.6 0.00 0.00 0.00 82 1014.7
20260507115331 6 31 1.6 1.6 0.00 0.00 0.00 83 1014.8
20260507114825 6 32 0.0 3.2 0.00 0.00 0.00 83 1014.7
20260507114318 6 32 1.6 3.2 0.00 0.00 0.00 84 1014.8
20260507113831 6 32 0.0 0.0 0.00 0.00 0.00 84 1014.7
20260507113324 5 32 0.0 1.6 0.00 0.00 0.00 85 1014.7
20260507112821 5 32 0.0 0.0 0.00 0.00 0.00 85 1014.7
20260507112353 4 32 0.0 0.0 0.00 0.00 0.00 85 1014.6
20260507111824 4 31 0.0 0.0 0.00 0.00 0.00 85 1014.6
20260507111317 4 31 0.0 0.0 0.00 0.00 0.00 86 1014.5
20260507110830 3 32 0.0 1.6 0.00 0.00 0.00 86 1014.4
20260507110323 3 32 0.0 1.6 0.00 0.00 0.00 86 1014.3
20260507105814 3 32 0.0 1.6 0.00 0.00 0.00 86 1014.2
20260507105327 3 32 0.0 0.0 0.00 0.00 0.00 86 1014.2
20260507104820 3 32 0.0 0.0 0.00 0.00 0.00 86 1014.0
20260507104316 3 31 0.0 0.0 0.00 0.00 0.00 85 1013.9
20260507103828 3 31 0.0 0.0 0.00 0.00 0.00 85 1013.8
20260507103320 3 31 0.0 0.0 0.00 0.00 0.00 85 1013.8
20260507102814 3 31 0.0 1.6 0.00 0.00 0.00 85 1013.8
20260507101827 3 31 0.0 1.6 0.00 0.00 0.00 85 1013.9
20260507101322 4 31 0.0 1.6 0.00 0.00 0.00 85 1013.9
20260507100835 4 31 0.0 1.6 0.00 0.00 0.00 85 1013.9
20260507100331 4 32 0.0 1.6 0.00 0.00 0.00 86 1013.9
20260507095822 4 32 0.0 1.6 0.00 0.00 0.00 86 1013.9
20260507095316 4 31 0.0 1.6 0.00 0.00 0.00 86 1013.9
20260507094322 4 32 0.0 0.0 0.00 0.00 0.00 86 1013.9
20260507093815 4 32 0.0 1.6 0.00 0.00 0.00 86 1014.0
20260507085315 4 34 0.0 0.0 0.00 0.05 0.00 87 1013.5
20260507084827 4 34 0.0 0.0 0.00 0.05 0.00 87 1013.5
20260507084324 4 34 0.0 0.0 0.00 0.05 0.00 87 1013.5
20260507083817 4 34 0.0 0.0 0.00 0.05 0.00 87 1013.4
20260507083330 4 34 0.0 0.0 0.00 0.05 0.00 87 1013.3
20260507082823 4 34 0.0 0.0 0.00 0.05 0.00 86 1013.3
20260507082316 4 34 0.0 0.0 0.00 0.05 0.00 86 1013.3
20260507081828 4 34 0.0 0.0 0.00 0.05 0.00 86 1013.3
20260507081320 4 34 0.0 0.0 0.00 0.05 0.00 85 1013.3
20260507080816 5 34 0.0 0.0 0.00 0.05 0.00 85 1013.3
20260507080328 5 34 0.0 0.0 0.00 0.05 0.00 85 1013.3
20260507075816 5 34 0.0 0.0 0.00 0.10 0.00 84 1013.2
20260507073828 6 34 0.0 0.0 0.00 0.10 0.00 84 1013.2
20260507055327 6 34 0.0 0.0 0.00 1.07 0.00 84 1013.3
20260507054819 6 34 0.0 0.0 0.00 1.07 0.00 83 1013.4
20260507054351 6 34 0.0 0.0 0.00 1.07 0.00 83 1013.4
20260507053842 6 34 0.0 1.6 0.00 1.07 0.00 83 1013.4
20260507053353 6 34 0.0 1.6 0.00 1.07 0.00 83 1013.3
20260507052824 6 34 0.0 1.6 0.00 1.07 0.00 83 1013.4
20260507052316 6 34 0.0 1.6 0.00 1.07 0.00 83 1013.6
20260507051829 6 34 0.0 0.0 0.00 1.07 0.00 83 1013.5
20260507000816 14 28 3.2 11.3 0.00 1.75 1.50 63 1012.0
20260507000329 14 28 4.8 8.0 0.00 1.75 1.50 62 1011.9
20260506235819 14 48 3.2 12.9 0.00 1.85 1.50 63 1012.1
20260506235315 14 39 6.4 14.5 0.00 1.85 1.50 61 1012.1
20260506234828 14 14 4.8 9.7 0.00 1.85 1.50 61 1012.1
20260506233852 14 25 6.4 9.7 0.00 1.85 1.50 61 1012.0
20260506233324 14 39 4.8 12.9 0.00 1.85 1.50 61 1012.0
20260506232817 14 355 3.2 12.9 0.00 1.85 1.50 61 1012.1
20260506232332 14 41 3.2 6.4 0.00 1.85 1.50 60 1012.0
20260506231845 14 40 3.2 11.3 0.00 1.85 1.50 59 1011.9
20260506231318 14 6 4.8 11.3 0.00 1.85 1.50 58 1011.7
20260506230834 14 28 4.8 12.9 0.00 1.85 1.50 59 1011.7
20260506224334 14 34 9.7 16.1 0.00 2.03 1.50 57 1011.3